Location: Unspecified
(47.1121°N, 116.3927°W)
Time: 00:19:55
(UTC-07:00)

OTV 5 (USA 277) - Visible Passes

Search period start: 21 October 2019 00:00
Search period end: 31 October 2019 00:00
Orbit: 310 x 324 km, 54.5° (Epoch: 17 October)

Date Brightness Start Highest point End Pass type
(mag) Time Alt. Az. Time Alt. Az. Time Alt. Az.
28 Oct ? 19:11:49 10° SSW 19:13:13 21° S 19:13:13 21° S visible
29 Oct ? 19:25:55 10° SW 19:27:41 35° SW 19:27:41 35° SW visible
30 Oct ? 18:07:11 10° S 18:09:06 17° SE 18:11:03 10° E visible
30 Oct ? 19:40:30 10° WSW 19:42:01 28° W 19:42:01 28° W visible
